Teterboro, NJ

4:49 PM EST on December 05, 2016 (GMT -0500)
Teterboro

Weather History for KTEB - February, 2013

Change the Weather History Date:

Thursday, February 28, 2013

  Actual Average Record
Temperature  
Mean Temperature 44 °F -  
Max Temperature 48 °F 43 °F 61 °F (2016)
Min Temperature 37 °F 28 °F 10 °F (2014)
Degree Days  
Heating Degree Days 22    
Moisture  
Dew Point 33 °F    
Average Humidity 70    
Maximum Humidity 89    
Minimum Humidity 52    
Precipitation  
Precipitation 0.00 in - - ()
Sea Level Pressure  
Sea Level Pressure 29.58 in    
Wind  
Wind Speed 4 mph (WNW)    
Max Wind Speed 12 mph    
Max Gust Speed -    
Visibility 10 miles    
Events Rain    
Averages and records for this station are not official NWS values.
T = Trace of Precipitation, MM = Missing Value Source: NWS Daily Summary

Daily Weather History Graph

Daily Weather History Graph

Search for Another Location

Airport or City:

Trip Planner

Search our weather history database for the weather conditions in past years. The results will help you decide how hot, cold, wet, or windy it might be!

Date:

Astronomy

Feb. 28, 2013 Rise Set
Actual Time 6:31 AM EST 5:46 PM EST
Civil Twilight 6:03 AM EST 6:14 PM EST
Nautical Twilight 5:32 AM EST 6:45 PM EST
Astronomical Twilight 5:00 AM EST 7:17 PM EST
Moon 9:12 PM EST (2/28) 7:37 AM EST (2/28)
Length of Visible Light 12h 10m
Length of Day
11h 15m
Waning Gibbous, 91% of the Moon is Illuminated
Feb 28
Waning Gibbous
Mar 4
Last Quarter
Mar 11
New
Mar 19
First Quarter
Mar 27
Full

Hourly Weather History & Observations

Time (EST) Temp. Windchill Dew Point Humidity Pressure Visibility Wind Dir Wind Speed Gust Speed Precip Events Conditions
12:51 AM 41.0 °F 38.0 °F 37.0 °F 86% 29.62 in 10.0 mi SSW 4.6 mph - N/A   Overcast
1:51 AM 41.0 °F 37.1 °F 37.0 °F 86% 29.61 in 10.0 mi South 5.8 mph - N/A   Overcast
2:51 AM 39.9 °F - 37.0 °F 89% 29.60 in 10.0 mi Calm Calm - N/A   Overcast
3:51 AM 41.0 °F - 37.0 °F 86% 29.60 in 10.0 mi Calm Calm - N/A   Overcast
4:51 AM 42.1 °F - 37.0 °F 82% 29.60 in 10.0 mi Calm Calm - N/A   Overcast
5:51 AM 39.9 °F - 37.0 °F 89% 29.60 in 10.0 mi Calm Calm - N/A   Overcast
6:51 AM 39.9 °F - 37.0 °F 89% 29.60 in 10.0 mi Calm Calm - N/A   Overcast
7:51 AM 42.1 °F - 37.0 °F 82% 29.61 in 10.0 mi Calm Calm - 0.00 in   Overcast
8:51 AM 44.6 °F 39.7 °F 35.6 °F 71% 29.62 in 9.0 mi West 9.2 mph - N/A   Overcast
9:51 AM 45.0 °F 43.5 °F 35.1 °F 68% 29.61 in 10.0 mi Variable 3.5 mph - N/A   Overcast
10:51 AM 48.0 °F - 35.1 °F 61% 29.58 in 10.0 mi WNW 5.8 mph - N/A   Overcast
11:51 AM 48.9 °F - 33.1 °F 54% 29.56 in 10.0 mi Calm Calm - N/A   Scattered Clouds
12:51 PM 48.9 °F - 32.0 °F 52% 29.54 in 10.0 mi WNW 5.8 mph - N/A   Overcast
1:51 PM 48.0 °F - 30.9 °F 52% 29.54 in 10.0 mi NW 4.6 mph - N/A   Overcast
2:51 PM 46.9 °F - 30.9 °F 54% 29.54 in 10.0 mi West 9.2 mph - N/A   Overcast
3:51 PM 46.0 °F 41.4 °F 30.9 °F 56% 29.54 in 10.0 mi WNW 9.2 mph - 0.00 in   Overcast
4:51 PM 45.0 °F 40.6 °F 30.9 °F 58% 29.54 in 10.0 mi NW 8.1 mph - N/A   Overcast
5:51 PM 44.1 °F 40.1 °F 30.0 °F 58% 29.56 in 10.0 mi NW 6.9 mph - 0.00 in Rain Light Rain
6:51 PM 43.0 °F 40.3 °F 30.0 °F 60% 29.57 in 10.0 mi NW 4.6 mph - 0.00 in   Overcast
7:51 PM 43.0 °F 39.5 °F 28.0 °F 56% 29.58 in 10.0 mi WNW 5.8 mph - N/A   Overcast
8:51 PM 42.1 °F 36.1 °F 30.0 °F 62% 29.60 in 10.0 mi NW 10.4 mph - N/A   Overcast
9:51 PM 39.9 °F 33.4 °F 30.9 °F 70% 29.60 in 10.0 mi WNW 10.4 mph - N/A   Overcast
10:51 PM 39.0 °F 32.8 °F 30.9 °F 73% 29.61 in 10.0 mi WNW 9.2 mph - N/A   Overcast
11:51 PM 37.9 °F 30.5 °F 30.9 °F 76% 29.60 in 10.0 mi NW 11.5 mph - N/A   Partly Cloudy